Voltar ao catálogo

SL-8 R/B

AtivoLEO
NORAD 3048·ROCKET BODY·🇷🇺 Russia

Lançado Nov 23, 1967 de Plesetsk Cosmodrome

Loading…

Próximas Passagens (próximas 24 horas)

TLE

AtualizadoSource: Space-Track

Época: Sep 14, 2026, 09:58 UTC

1 03048U 67116B   26257.41563619  .00000331  00000-0  69898-4 0  9994
2 03048  74.0071  37.8440 0006106 137.5989 252.5290 14.63472355119092

Acompanhe SL-8 R/B em tempo real com AllMySat

Download on the App Store